#timestamp,LO_Frequency,Hit 
1503180015.7,286047001.2,N
1503180035.5,286046998.6,N
1503180055.3,286046997.6,N
1503180075.2,286046997.0,N
1503180095.9,286046995.0,N
1503180115.7,286046997.2,N
1503180135.6,286046996.7,N
1503180155.4,286046999.6,N
1503180175.2,286046999.1,N
1503180195.1,286046996.5,N
1503180196.0,286046996.5,N
1503180215.8,286046999.1,N
1503180235.6,286046996.7,N
1503180255.4,286046996.6,N
1503180275.3,286046997.9,N
1503180295.1,286046993.7,P
1503180315.9,286046997.1,N
1503180335.7,286046997.2,N
1503180355.5,286046998.7,N
1503180375.3,286046997.0,N
1503180395.2,286047000.3,N
1503180415.0,286047001.4,N
1503180415.9,286047001.4,N
1503180435.7,286047002.6,N
1503180455.6,286047002.7,N
1503180475.4,286047005.8,N
1503180495.2,286047006.9,N
1503180515.1,286047008.6,N
1503180516.0,286047008.6,N
1503180535.8,286047010.8,N
1503180555.6,286047007.1,N
1503180575.5,286047003.9,N
1503180595.3,286047004.8,N
1503180615.1,286047005.7,N
1503180635.9,286047003.4,N
1503180655.7,286047004.4,N
1503180675.5,286047004.1,N
1503180695.4,286046999.8,N
1503180715.2,286046998.1,N
1503180735.0,286046998.5,N
1503180735.9,286046998.5,N
1503180755.8,286047000.8,N
1503180775.6,286047001.0,N
1503180795.4,286047001.1,N
1503180815.2,286046998.3,N
1503180835.1,286046997.1,N
1503180836.0,286046997.1,N
1503180855.8,286046997.1,N
1503180875.6,286046999.6,N
1503180895.5,286046999.0,N
1503180915.3,286047000.8,N
1503180935.1,286046998.7,N
1503180955.9,286046997.7,N
1503180975.7,286046999.4,N
1503180995.5,286047001.1,N
1503181015.4,286046998.7,N
1503181035.2,286046998.7,N
1503181055.0,286047000.8,N
1503181055.9,286047000.8,N
1503181075.8,286047001.0,N
1503181095.6,286046998.5,N
1503181115.4,286046997.5,N
1503181135.3,286046997.3,N
1503181155.1,286046995.9,N
1503181156.0,286046995.9,N
1503181175.8,286046997.8,N
1503181195.6,286046997.2,N
1503181215.5,286046999.3,N
1503181235.3,286046999.8,N
1503181255.1,286047000.7,N
1503181275.9,286047002.2,N
1503181295.7,286047005.9,P
1503181315.5,286047001.3,N
1503181335.4,286046999.8,N
1503181355.2,286047003.2,N
1503181375.0,286047006.4,N
1503181375.9,286047006.4,N
1503181395.8,286047007.4,N
1503181415.6,286047003.1,N
1503181435.4,286047005.6,N
1503181455.3,286047003.4,N
1503181475.1,286047007.1,N
1503181495.8,286047003.6,N
1503181515.7,286047005.9,N
1503181535.5,286047009.2,P
1503181555.3,286047002.3,N
1503181575.2,286047004.0,N
1503181595.9,286047001.8,N
1503181615.7,286047001.7,N
1503181635.6,286047005.3,N
1503181655.4,286047004.2,N
1503181675.2,286047001.8,N
1503181695.1,286047001.9,N
1503181696.0,286047001.9,N
1503181715.8,286047001.6,N
1503181735.6,286046998.8,N
1503181755.5,286046996.6,N
1503181775.3,286046998.9,N
1503181795.1,286046998.2,N
1503181815.8,286047001.1,N
1503181835.7,286047002.7,N
1503181855.5,286047007.5,N
1503181875.3,286047005.5,N
1503181895.2,286047007.2,N
1503181915.9,286047007.3,N
1503181935.7,286047006.7,N
1503181955.6,286047006.9,N
1503181975.4,286047009.8,P
1503181995.2,286047004.7,N
1503182015.1,286047005.9,N
1503182016.0,286047005.9,N
1503182035.8,286047005.7,N
1503182055.6,286047001.9,N
1503182075.5,286047000.8,N
1503182095.3,286047002.4,N
1503182115.1,286047004.0,N
1503182135.9,286047002.3,N
1503182155.7,286046998.1,N
1503182175.5,286047002.8,N
1503182195.4,286046999.9,N
1503182215.2,286046998.8,N
1503182235.0,286047001.0,N
1503182235.9,286047001.0,N
1503182255.7,286046998.3,N
1503182275.6,286046997.1,N
1503182295.4,286046996.5,N
1503182315.2,286046993.7,N
1503182335.1,286046993.6,N
1503182336.0,286046993.6,N
1503182355.8,286046995.2,N
1503182375.6,286046997.6,N
1503182395.5,286046997.0,N
1503182415.3,286046998.6,N
1503182435.1,286046994.9,N
1503182455.9,286046996.2,N
1503182475.7,286046995.7,N
1503182495.5,286046995.4,N
1503182515.4,286046995.1,N
1503182535.2,286046999.2,N
1503182555.0,286046997.6,N
1503182555.9,286046997.6,N
1503182575.7,286046997.1,N
1503182595.6,286046997.1,N
1503182615.4,286046997.3,N
1503182635.2,286046997.3,N
1503182655.1,286046998.6,N
1503182656.0,286046998.6,N
1503182675.8,286047001.3,N
1503182695.6,286047002.7,N
1503182715.5,286047001.5,N
1503182735.3,286047000.9,N
1503182755.1,286047000.8,N
1503182775.9,286047001.3,N
1503182795.7,286047001.7,N
1503182815.5,286047004.4,N
1503182835.4,286047001.5,N
1503182855.2,286047002.1,N
1503182875.0,286047001.6,N
1503182875.9,286047001.6,N
1503182895.8,286047002.3,N
1503182915.6,286047001.5,N
1503182935.4,286047004.4,N
1503182955.3,286047001.9,N
1503182975.1,286047001.6,N
1503182976.0,286047001.6,N
1503182995.8,286047001.5,N
1503183015.6,286047001.5,N
1503183035.5,286047002.4,N
1503183055.3,286046999.5,N
1503183075.1,286047001.1,N
1503183095.9,286046998.9,N
1503183115.7,286047000.9,N
1503183135.5,286047003.0,N
1503183155.4,286047005.0,N
1503183175.2,286047003.4,N
1503183195.0,286047002.9,N
1503183195.9,286047002.9,N
1503183215.8,286047002.5,N
1503183235.6,286047000.3,N
1503183255.4,286046999.5,N
1503183275.3,286046999.6,N
1503183295.1,286047002.6,N
1503183296.0,286047002.6,N
1503183315.8,286047002.4,N
1503183335.7,286047000.0,N
1503183355.5,286047002.1,N
1503183375.3,286047000.1,N
1503183395.1,286047002.6,N
1503183415.9,286046999.3,N
1503183435.7,286046999.3,N
1503183455.5,286046997.3,N
1503183475.4,286046997.9,N
1503183495.2,286046999.6,N
1503183515.0,286046998.6,N
1503183515.9,286046998.6,N
1503183535.8,286046997.5,N
1503183555.6,286046996.0,N
1503183575.4,286046997.6,N
1503183595.3,286046997.6,N
